map of IEV home
IEV - Airport
Location
City:  Kiev, Kiev, Ukraine
Name:Zhulyany
ICAO:UKKK
IATA:IEV

Details
Type:Airport (Aerodrome, Airfield)
Use:Public/Civil, International (customs port of entry)
Latitude:5024'06"N (50.401694)
Longitude:3026'59"E (30.449697)
Elevation:586 ft (179 m)
Variation:7.73E (WMM2015 magnetic declination)
0.12 annual change
Runways:1
Longest:5905 × 161 ft (1800 × 49 m), paved

Time
Time Zone:UTC+2 (DST+3)
Local Time:

Weather
METAR:UKKK 162230Z 25002MPS 9999 SCT026 M06/M08 Q1010 R26/810345 NOSIG
TAF:UKKK 161703Z 1618/1718 25003G08MPS 6000 SCT007 BKN020 TX01/1712Z TNM06/1703Z
TEMPO 1618/1704 2000 -SHSN BR BKN005 SCT015CB
BECMG 1704/1706 20006G12MPS
TEMPO 1706/1718 22009G14MPS 2100 -SHSN BKN007 SCT015CB

Related Locations
Nearby:
Farthest:CHT: 11099 mi / 17862 km
Waitangi [Tuuta], CIT, NZ

Find:

   beyond  
but within

Other Information
Maps:
NOTAMs:
Links:
Sources:

  
  • flag of Ukraine
  • flag of Kiev
  • flag of Kiev
  

Sectional Chart

Flight Planning
at skyvector.com

Satellite Image

Google Maps Satellite view

 

Copyright © 2004-2019 Karl L. Swartz. All rights reserved.
The Great Circle Mapper name and logo are trademarks of the Great Circle Mapper.
All other trademarks mentioned herein belong to their respective owners.
Please see credits for attibutions and further copyright information.

  Follow gcmap on Facebook Follow gcmap on Twitter Follow gcmap on Google+ GCmap on LinkedIn

hCard Microformat

Geo Microformat